Weather History for Houma, LA

Change the Weather History Date:

Friday, July 12, 2013

  Actual Average Record
Temperature  
Mean Temperature 80 °F -  
Max Temperature 89 °F 90 °F 98 °F (1996)
Min Temperature 72 °F 73 °F 65 °F (1953)
Cooling Degree Days 16    
Growing Degree Days 30 (Base 50)    
Moisture  
Dew Point 72 °F    
Average Humidity 82    
Maximum Humidity 94    
Minimum Humidity 55    
Precipitation  
Precipitation 0.00 in - - ()
Sea Level Pressure  
Sea Level Pressure 29.92 in    
Wind  
Wind Speed 2 mph (SSE)    
Max Wind Speed 9 mph    
Max Gust Speed -    
Visibility 6 miles    
Events Fog , Thunderstorm    
Averages and records for this station are not official NWS values.
T = Trace of Precipitation, MM = Missing Value Source: NWS Daily Summary

Daily Weather History Graph

Daily Weather History Graph

Search for Another Location

Airport:

Trip Planner

Search our weather history database for the weather conditions in past years. The results will help you decide how hot, cold, wet, or windy it might be!

Date:

Astronomy

Jul. 12, 2013 Rise Set
Actual Time 6:11 AM CDT 8:05 PM CDT
Civil Twilight 5:44 AM CDT 8:31 PM CDT
Nautical Twilight 5:12 AM CDT 9:04 PM CDT
Astronomical Twilight 4:37 AM CDT 9:38 PM CDT
Moon 10:05 AM CDT (7/12) 10:40 PM CDT (7/12)
Length of Visible Light 14h 47m
Length of Day
13h 53m
Waxing Crescent, 17% of the Moon is Illuminated
Jul 12
Waxing Crescent
Jul 15
First Quarter
Jul 22
Full
Jul 29
Last Quarter
Aug 6
New

Hourly Weather History & Observations

Time (CDT) Temp. Heat Index Dew Point Humidity Pressure Visibility Wind Dir Wind Speed Gust Speed Precip Events Conditions
12:15 AM 74.3 °F - 71.2 °F 90% 29.95 in 7.0 mi Calm Calm - N/A   Scattered Clouds
12:35 AM 73.9 °F - 70.9 °F 90% 29.95 in 7.0 mi ESE 3.5 mph - N/A   Clear
12:55 AM 73.9 °F - 70.9 °F 90% 29.94 in 7.0 mi ESE 3.5 mph - N/A   Mostly Cloudy
1:15 AM 73.6 °F - 70.7 °F 91% 29.94 in 7.0 mi Calm Calm - N/A   Overcast
1:35 AM 73.4 °F - 70.3 °F 90% 29.93 in 7.0 mi Calm Calm - N/A   Mostly Cloudy
1:55 AM 72.9 °F - 70.0 °F 91% 29.93 in 7.0 mi Calm Calm - N/A   Mostly Cloudy
2:15 AM 72.9 °F - 70.0 °F 91% 29.93 in 7.0 mi Calm Calm - N/A   Mostly Cloudy
2:35 AM 73.4 °F - 70.3 °F 90% 29.92 in 7.0 mi ESE 3.5 mph - N/A   Mostly Cloudy
2:55 AM 73.4 °F - 70.5 °F 91% 29.92 in 7.0 mi ESE 3.5 mph - N/A   Overcast
3:15 AM 72.9 °F - 70.0 °F 91% 29.92 in 5.0 mi Calm Calm - N/A   Scattered Clouds
3:35 AM 72.9 °F - 70.0 °F 91% 29.91 in 5.0 mi Calm Calm - N/A   Scattered Clouds
3:55 AM 72.7 °F - 69.8 °F 91% 29.92 in 5.0 mi Calm Calm - N/A   Mostly Cloudy
4:15 AM 72.5 °F - 69.8 °F 91% 29.92 in 4.0 mi Calm Calm - N/A   Scattered Clouds
4:35 AM 72.1 °F - 69.4 °F 91% 29.92 in 3.0 mi Calm Calm - N/A   Scattered Clouds
4:55 AM 72.1 °F - 69.4 °F 91% 29.92 in 3.0 mi Calm Calm - N/A   Scattered Clouds
5:15 AM 72.5 °F - 69.8 °F 91% 29.92 in 0.5 mi Calm Calm - N/A Fog Fog
5:35 AM 72.7 °F - 70.2 °F 92% 29.93 in 0.2 mi Calm Calm - N/A Fog Fog
5:55 AM 72.9 °F - 70.3 °F 92% 29.93 in 1.8 mi Calm Calm - N/A   Overcast
6:50 AM 73.4 °F - 71.6 °F 94% 29.96 in 1.0 mi Calm Calm - N/A   Overcast
7:50 AM 75.2 °F - 71.6 °F 89% 29.97 in 2.0 mi Calm Calm - N/A   Mostly Cloudy
8:33 AM 77.0 °F - 73.4 °F 89% 29.97 in 4.0 mi Calm Calm - N/A   Scattered Clouds
8:50 AM 78.8 °F - 73.4 °F 83% 29.97 in 4.0 mi Calm Calm - N/A   Scattered Clouds
9:50 AM 82.4 °F 88.2 °F 73.4 °F 74% 29.95 in 7.0 mi NNW 5.8 mph - N/A   Scattered Clouds
10:50 AM 84.2 °F 89.6 °F 71.6 °F 66% 29.95 in 7.0 mi North 9.2 mph - N/A   Scattered Clouds
12:55 PM 87.8 °F 92.6 °F 69.8 °F 55% 29.92 in 7.0 mi NW 4.6 mph - N/A   Scattered Clouds
2:50 PM 89.6 °F 96.2 °F 71.6 °F 55% 29.92 in 7.0 mi SSW 3.5 mph - N/A   Mostly Cloudy
3:50 PM 89.6 °F 96.2 °F 71.6 °F 55% 29.90 in 7.0 mi West 5.8 mph - N/A   Scattered Clouds
4:50 PM 89.6 °F 96.2 °F 71.6 °F 55% 29.88 in 7.0 mi West 3.5 mph - N/A   Scattered Clouds
5:50 PM 87.8 °F 93.8 °F 71.6 °F 58% 29.97 in 7.0 mi WSW 9.2 mph - N/A   Scattered Clouds
7:15 PM 84.7 °F 92.8 °F 75.0 °F 72% 29.87 in 10.0 mi SE 6.9 mph - N/A   Clear
7:35 PM 84.4 °F 92.7 °F 75.2 °F 74% 29.89 in 7.0 mi SE 4.6 mph - N/A Thunderstorm Scattered Clouds
7:55 PM 84.2 °F 92.6 °F 75.4 °F 75% 29.88 in 7.0 mi SE 3.5 mph - N/A Thunderstorm Clear
8:15 PM 83.3 °F 91.1 °F 75.4 °F 77% 29.88 in 7.0 mi Calm Calm - N/A Thunderstorm Clear
8:35 PM 82.8 °F 90.1 °F 75.2 °F 78% 29.89 in 10.0 mi Calm Calm - N/A Thunderstorm Mostly Cloudy
8:55 PM 81.7 °F 87.8 °F 74.7 °F 79% 29.87 in 10.0 mi SSE 3.5 mph - N/A Thunderstorm Scattered Clouds
9:15 PM 80.1 °F 85.1 °F 75.0 °F 85% 29.88 in 7.0 mi Calm Calm - N/A   Clear
9:35 PM 79.7 °F - 75.0 °F 86% 29.88 in 7.0 mi Calm Calm - N/A   Clear
9:55 PM 79.0 °F - 74.7 °F 87% 29.88 in 7.0 mi Calm Calm - N/A   Clear
10:15 PM 79.0 °F - 72.7 °F 81% 29.88 in 7.0 mi SSE 4.6 mph - N/A   Clear
10:35 PM 79.2 °F - 70.5 °F 75% 29.88 in 10.0 mi SSE 4.6 mph - N/A   Clear
10:55 PM 78.3 °F - 71.6 °F 80% 29.89 in 10.0 mi SSE 3.5 mph - N/A   Clear
11:15 PM 77.2 °F - 71.6 °F 83% 29.90 in 7.0 mi SSE 3.5 mph - N/A   Clear
11:35 PM 76.3 °F - 71.6 °F 85% 29.89 in 7.0 mi Calm Calm - N/A   Clear
11:55 PM 77.0 °F - 71.2 °F 82% 29.90 in 10.0 mi Calm Calm - N/A   Clear